Back to catalog

STARLINK-36763

AliveCommunicationsVLEO
NORAD 67906·PAYLOAD·🇺🇸 United States

Launched Feb 22, 2026 from Vandenberg Space Force Base

Loading…

Next Passes (next 24 hours)

TLE

FreshSource: CelesTrak SupGP

Epoch: Sep 14, 2026, 14:50 UTC

1 67906C 26036C   26257.61854167 -.00015545  00000+0 -56317-3 0  2578
2 67906  42.9993 258.6239 0001443 272.7269  49.6873 15.27578412    18

Track STARLINK-36763 in real time with AllMySat

Download on the App Store